Etusivu
METAR-TAF:

METAR-TAF

Lentoasemat :

Calhoun County Airport

Port Lavaca, Texas, Yhdysvallat

Leveyspiiri: 28-39-14N, Pituuspiiri: 096-40-52W, korkeus merenpinnasta: 9 m

Tämänhetkinen sää

Tämä raportti tehtiin 29 minuuttia sitten, kello 02.30 UTC
Tuuli 6 kn etelästä/kaakosta
Lämpötila 19°C
Kosteus 88%
Ilmanpaine 1008 hPa
Näkyvyys: 16.1 km
selkeää

METAR: KPKV 150230Z AUTO 16006KT 10SM CLR 19/17 A2977 RMK AO2 T01850174

Aika: 20:59 (02:59 UTC)


TAF: puuttuu

Säähavainnot ja -ennusteet yli 4000 lentoasemalta (METAR- ja TAF-raportit).

Käytössä olevat sääasemat on merkitty karttaan keltaisilla ja punaisilla pisteillä.

Aseta hiiri pisteen päälle nähdäksesi sääaseman nimen.

Klikkaa sitten nähdäksesi säähavainnot ja -ennusteet.

Kartan vaihtaminen: klikkaa mustalla rastilla varustettuja vihreitä pisteitä, niin voit zoomata sisään; viivalla varustettua vihreää pistettä, niin voit zoomata ulos tai vihreitä nuolia, niin pääset viereisille kartoille.


METAR-TAF: